Time,TemperatureF,DewpointF,PressureIn,WindDirection,WindDirectionDegrees,WindSpeedMPH,WindSpeedGustMPH,Humidity,HourlyPrecipIn,Conditions,Clouds,dailyrainin,SoftwareType,DateUTC
2013-03-12 00:02:00,37.2,24.0,30.17,East,83,0.0,0.0,58,0.00,,---,0.00,VWS V14.01,2013-03-12 07:02:00,
2013-03-12 00:07:00,37.4,24.2,30.17,East,83,0.0,2.2,58,0.00,,---,0.00,VWS V14.01,2013-03-12 07:07:00,
2013-03-12 00:13:00,37.0,23.9,30.17,East,83,0.0,0.0,58,0.00,,---,0.00,VWS V14.01,2013-03-12 07:13:00,
2013-03-12 00:18:00,36.9,23.7,30.17,East,83,0.0,0.0,58,0.00,,---,0.00,VWS V14.01,2013-03-12 07:18:00,
2013-03-12 00:23:00,36.3,23.8,30.17,East,83,0.0,0.0,60,0.00,,---,0.00,VWS V14.01,2013-03-12 07:23:00,
2013-03-12 00:29:00,36.3,23.8,30.17,East,83,0.0,0.0,60,0.00,,---,0.00,VWS V14.01,2013-03-12 07:29:00,
2013-03-12 00:34:00,36.0,23.4,30.17,ENE,61,0.0,0.0,60,0.00,,---,0.00,VWS V14.01,2013-03-12 07:34:00,
2013-03-12 00:40:00,36.0,23.4,30.17,ESE,116,3.6,3.6,60,0.00,,---,0.00,VWS V14.01,2013-03-12 07:40:00,
2013-03-12 00:45:00,36.1,23.6,30.17,SE,132,3.1,3.1,60,0.00,,---,0.00,VWS V14.01,2013-03-12 07:45:00,
2013-03-12 00:51:00,36.5,24.0,30.17,East,93,2.7,4.0,60,0.00,,---,0.00,VWS V14.01,2013-03-12 07:51:00,
2013-03-12 00:56:00,37.0,24.5,30.17,NE,43,4.9,5.8,60,0.00,,---,0.00,VWS V14.01,2013-03-12 07:56:00,
2013-03-12 01:02:00,36.7,24.1,30.17,NE,51,2.2,3.1,60,0.00,,---,0.00,VWS V14.01,2013-03-12 08:02:00,
2013-03-12 01:07:00,36.5,24.0,30.17,ESE,108,0.0,0.0,60,0.00,,---,0.00,VWS V14.01,2013-03-12 08:07:00,
2013-03-12 01:13:00,36.7,24.1,30.17,ENE,72,4.9,4.9,60,0.00,,---,0.00,VWS V14.01,2013-03-12 08:13:00,
2013-03-12 01:19:00,36.9,24.3,30.17,East,79,0.0,0.0,60,0.00,,---,0.00,VWS V14.01,2013-03-12 08:19:00,
2013-03-12 01:24:00,36.5,24.0,30.17,East,79,0.0,0.0,60,0.00,,---,0.00,VWS V14.01,2013-03-12 08:24:00,
2013-03-12 01:30:00,36.5,24.0,30.17,East,85,0.0,0.0,60,0.00,,---,0.00,VWS V14.01,2013-03-12 08:30:00,
2013-03-12 01:35:00,36.7,24.1,30.17,East,83,6.3,6.3,60,0.00,,---,0.00,VWS V14.01,2013-03-12 08:35:00,
2013-03-12 01:41:00,36.7,24.1,30.17,ENE,64,5.8,6.3,60,0.00,,---,0.00,VWS V14.01,2013-03-12 08:41:00,
2013-03-12 01:46:00,36.3,23.8,30.17,NE,52,2.7,3.6,60,0.00,,---,0.00,VWS V14.01,2013-03-12 08:46:00,
2013-03-12 01:52:00,35.6,23.1,30.17,NE,52,0.0,0.0,60,0.00,,---,0.00,VWS V14.01,2013-03-12 08:52:00,
2013-03-12 01:58:00,35.4,22.9,30.17,NE,52,0.0,0.0,60,0.00,,---,0.00,VWS V14.01,2013-03-12 08:58:00,
2013-03-12 02:03:00,35.2,22.8,30.17,NE,52,0.0,0.0,60,0.00,,---,0.00,VWS V14.01,2013-03-12 09:03:00,
2013-03-12 02:09:00,35.2,22.8,30.17,NE,52,0.0,0.0,60,0.00,,---,0.00,VWS V14.01,2013-03-12 09:09:00,
2013-03-12 02:14:00,35.2,22.8,30.17,SE,140,4.0,4.0,60,0.00,,---,0.00,VWS V14.01,2013-03-12 09:14:00,
2013-03-12 02:19:00,35.1,22.6,30.17,SSE,152,3.6,4.0,60,0.00,,---,0.00,VWS V14.01,2013-03-12 09:19:00,
2013-03-12 02:25:00,34.9,22.4,30.17,SSE,155,2.2,3.1,60,0.00,,---,0.00,VWS V14.01,2013-03-12 09:25:00,
2013-03-12 02:31:00,34.5,22.1,30.17,SE,138,2.7,2.7,60,0.00,,---,0.00,VWS V14.01,2013-03-12 09:31:00,
2013-03-12 02:36:00,34.5,22.1,30.17,SE,139,0.0,0.0,60,0.00,,---,0.00,VWS V14.01,2013-03-12 09:36:00,
2013-03-12 02:42:00,34.7,22.2,30.17,ESE,109,2.7,2.7,60,0.00,,---,0.00,VWS V14.01,2013-03-12 09:42:00,
2013-03-12 02:47:00,34.5,22.1,30.17,East,96,0.0,0.0,60,0.00,,---,0.00,VWS V14.01,2013-03-12 09:47:00,
2013-03-12 02:53:00,34.0,21.6,30.17,NE,38,0.0,0.0,60,0.00,,---,0.00,VWS V14.01,2013-03-12 09:53:00,
2013-03-12 02:58:00,33.8,21.4,30.14,NE,40,0.0,0.0,60,0.00,,---,0.00,VWS V14.01,2013-03-12 09:58:00,
2013-03-12 03:04:00,34.0,21.6,30.14,ESE,105,2.7,2.7,60,0.00,,---,0.00,VWS V14.01,2013-03-12 10:04:00,
2013-03-12 03:09:00,34.3,22.5,30.14,ESE,116,3.6,4.0,62,0.00,,---,0.00,VWS V14.01,2013-03-12 10:09:00,
2013-03-12 03:15:00,34.0,22.1,30.14,ESE,116,0.0,0.0,62,0.00,,---,0.00,VWS V14.01,2013-03-12 10:15:00,
2013-03-12 03:20:00,33.8,22.0,30.14,North,353,2.7,3.6,62,0.00,,---,0.00,VWS V14.01,2013-03-12 10:20:00,
2013-03-12 03:25:00,33.3,21.5,30.14,North,353,2.7,2.7,62,0.00,,---,0.00,VWS V14.01,2013-03-12 10:25:00,
2013-03-12 03:30:00,33.3,21.5,30.14,North,353,0.0,0.0,62,0.00,,---,0.00,VWS V14.01,2013-03-12 10:30:00,
2013-03-12 03:36:00,33.3,21.5,30.14,North,353,0.0,0.0,62,0.00,,---,0.00,VWS V14.01,2013-03-12 10:36:00,
2013-03-12 03:42:00,33.3,21.5,30.14,North,353,0.0,0.0,62,0.00,,---,0.00,VWS V14.01,2013-03-12 10:42:00,
2013-03-12 03:47:00,33.3,21.5,30.14,North,353,0.0,0.0,62,0.00,,---,0.00,VWS V14.01,2013-03-12 10:47:00,
2013-03-12 03:53:00,33.1,21.3,30.14,ESE,113,0.0,0.0,62,0.00,,---,0.00,VWS V14.01,2013-03-12 10:53:00,
2013-03-12 03:58:00,33.1,21.3,30.14,ESE,121,0.0,0.0,62,0.00,,---,0.00,VWS V14.01,2013-03-12 10:58:00,
2013-03-12 04:04:00,32.9,21.1,30.14,SE,126,0.0,0.0,62,0.00,,---,0.00,VWS V14.01,2013-03-12 11:04:00,
2013-03-12 04:09:00,32.7,21.0,30.14,SE,133,2.7,3.1,62,0.00,,---,0.00,VWS V14.01,2013-03-12 11:09:00,
2013-03-12 04:15:00,32.5,20.8,30.14,SE,129,2.7,3.6,62,0.00,,---,0.00,VWS V14.01,2013-03-12 11:15:00,
2013-03-12 04:20:00,32.4,20.6,30.14,SE,129,0.0,0.0,62,0.00,,---,0.00,VWS V14.01,2013-03-12 11:20:00,
2013-03-12 04:26:00,32.0,20.3,30.14,SE,129,0.0,0.0,62,0.00,,---,0.00,VWS V14.01,2013-03-12 11:26:00,
2013-03-12 04:32:00,31.8,20.1,30.14,SE,129,0.0,0.0,62,0.00,,---,0.00,VWS V14.01,2013-03-12 11:32:00,
2013-03-12 04:38:00,31.8,20.1,30.14,SE,129,0.0,0.0,62,0.00,,---,0.00,VWS V14.01,2013-03-12 11:38:00,
2013-03-12 04:44:00,31.6,19.9,30.14,SE,129,0.0,0.0,62,0.00,,---,0.00,VWS V14.01,2013-03-12 11:44:00,
2013-03-12 04:50:00,31.3,19.6,30.14,SE,129,0.0,0.0,62,0.00,,---,0.00,VWS V14.01,2013-03-12 11:50:00,
2013-03-12 04:56:00,31.3,19.6,30.14,SE,130,2.7,3.6,62,0.00,,---,0.00,VWS V14.01,2013-03-12 11:56:00,
2013-03-12 05:01:00,31.1,19.4,30.14,SE,130,0.0,0.0,62,0.00,,---,0.00,VWS V14.01,2013-03-12 12:01:00,
2013-03-12 05:07:00,30.9,19.8,30.14,SE,131,0.0,0.0,63,0.00,,---,0.00,VWS V14.01,2013-03-12 12:07:00,
2013-03-12 05:12:00,31.1,20.0,30.14,SE,143,3.6,3.6,63,0.00,,---,0.00,VWS V14.01,2013-03-12 12:12:00,
2013-03-12 05:17:00,30.9,19.8,30.14,SE,139,5.4,5.4,63,0.00,,---,0.00,VWS V14.01,2013-03-12 12:17:00,
2013-03-12 05:23:00,30.9,19.8,30.14,ESE,111,2.2,2.7,63,0.00,,---,0.00,VWS V14.01,2013-03-12 12:23:00,
2013-03-12 05:28:00,30.7,19.6,30.14,ESE,117,0.0,0.0,63,0.00,,---,0.00,VWS V14.01,2013-03-12 12:28:00,
2013-03-12 05:33:00,30.7,19.6,30.14,ESE,117,0.0,0.0,63,0.00,,---,0.00,VWS V14.01,2013-03-12 12:33:00,
2013-03-12 05:39:00,30.9,20.4,30.14,South,170,2.7,3.1,64,0.00,,---,0.00,VWS V14.01,2013-03-12 12:39:00,
2013-03-12 05:45:00,30.9,20.4,30.14,South,169,3.6,4.0,64,0.00,,---,0.00,VWS V14.01,2013-03-12 12:45:00,
2013-03-12 05:50:00,30.7,20.2,30.14,SSE,150,3.1,4.5,64,0.00,,---,0.00,VWS V14.01,2013-03-12 12:50:00,
2013-03-12 05:56:00,30.9,20.4,30.14,SE,143,2.7,2.7,64,0.00,,---,0.00,VWS V14.01,2013-03-12 12:56:00,
2013-03-12 06:01:00,31.1,20.5,30.14,SSE,153,2.2,3.1,64,0.00,,---,0.00,VWS V14.01,2013-03-12 13:01:00,
2013-03-12 06:07:00,30.9,20.4,30.14,NNE,21,0.0,0.0,64,0.00,,---,0.00,VWS V14.01,2013-03-12 13:07:00,
2013-03-12 06:12:00,31.1,20.5,30.14,NNE,21,0.0,0.0,64,0.00,,---,0.00,VWS V14.01,2013-03-12 13:12:00,
2013-03-12 06:17:00,30.9,20.4,30.14,ENE,66,0.0,0.0,64,0.00,,---,0.00,VWS V14.01,2013-03-12 13:17:00,
2013-03-12 06:23:00,30.7,20.2,30.14,ENE,78,0.0,0.0,64,0.00,,---,0.00,VWS V14.01,2013-03-12 13:23:00,
2013-03-12 06:28:00,30.6,20.0,30.14,ENE,78,0.0,0.0,64,0.00,,---,0.00,VWS V14.01,2013-03-12 13:28:00,
2013-03-12 06:34:00,30.6,20.0,30.14,ENE,78,0.0,0.0,64,0.00,,---,0.00,VWS V14.01,2013-03-12 13:34:00,
2013-03-12 06:40:00,30.6,20.6,30.14,SSW,197,0.0,0.0,66,0.00,,---,0.00,VWS V14.01,2013-03-12 13:40:00,
2013-03-12 06:46:00,30.6,20.6,30.14,SE,140,0.0,0.0,66,0.00,,---,0.00,VWS V14.01,2013-03-12 13:46:00,
2013-03-12 06:51:00,30.6,20.6,30.14,SSE,149,0.0,0.0,66,0.00,,---,0.00,VWS V14.01,2013-03-12 13:51:00,
2013-03-12 06:56:00,30.6,20.6,30.14,SSE,149,0.0,0.0,66,0.00,,---,0.00,VWS V14.01,2013-03-12 13:56:00,
2013-03-12 07:02:00,30.4,20.4,30.14,SSE,156,0.0,0.0,66,0.00,,---,0.00,VWS V14.01,2013-03-12 14:02:00,
2013-03-12 07:07:00,30.6,20.6,30.14,South,185,3.6,3.6,66,0.00,,---,0.00,VWS V14.01,2013-03-12 14:07:00,
2013-03-12 07:13:00,30.7,20.7,30.14,SW,224,0.0,0.0,66,0.00,,---,0.00,VWS V14.01,2013-03-12 14:13:00,
2013-03-12 07:19:00,30.7,20.7,30.14,ENE,68,0.0,0.0,66,0.00,,---,0.00,VWS V14.01,2013-03-12 14:19:00,
2013-03-12 07:25:00,31.1,21.1,30.14,ESE,119,0.0,4.0,66,0.00,,---,0.00,VWS V14.01,2013-03-12 14:25:00,
2013-03-12 07:31:00,31.8,22.3,30.14,SSW,205,0.0,0.0,68,0.00,,---,0.00,VWS V14.01,2013-03-12 14:31:00,
2013-03-12 07:36:00,32.2,22.6,30.14,SE,134,3.6,4.5,68,0.00,,---,0.00,VWS V14.01,2013-03-12 14:36:00,
2013-03-12 07:41:00,32.9,23.3,30.14,SE,138,2.2,2.7,68,0.00,,---,0.00,VWS V14.01,2013-03-12 14:41:00,
2013-03-12 07:46:00,33.8,24.2,30.14,SE,138,2.7,2.7,68,0.00,,---,0.00,VWS V14.01,2013-03-12 14:46:00,
2013-03-12 07:52:00,34.5,24.9,30.14,ESE,114,0.0,0.0,68,0.00,,---,0.00,VWS V14.01,2013-03-12 14:52:00,
2013-03-12 07:57:00,36.0,26.3,30.14,NNE,19,0.0,0.0,68,0.00,,---,0.00,VWS V14.01,2013-03-12 14:57:00,
2013-03-12 08:03:00,37.6,26.7,30.14,NNW,345,3.1,3.1,64,0.00,,---,0.00,VWS V14.01,2013-03-12 15:03:00,
2013-03-12 08:09:00,41.0,28.2,30.14,North,8,4.0,5.4,60,0.00,,---,0.00,VWS V14.01,2013-03-12 15:09:00,
2013-03-12 08:14:00,44.2,30.6,30.14,North,11,4.5,5.4,58,0.00,,---,0.00,VWS V14.01,2013-03-12 15:14:00,
2013-03-12 08:20:00,48.7,33.5,30.14,NNE,15,5.4,6.3,56,0.00,,---,0.00,VWS V14.01,2013-03-12 15:20:00,
2013-03-12 08:25:00,52.0,35.9,30.17,NNE,28,5.8,6.3,54,0.00,,---,0.00,VWS V14.01,2013-03-12 15:25:00,
2013-03-12 08:30:00,54.5,37.5,30.17,North,0,8.1,8.1,52,0.00,,---,0.00,VWS V14.01,2013-03-12 15:30:00,
2013-03-12 08:35:00,56.7,37.2,30.17,North,0,6.3,8.1,48,0.00,,---,0.00,VWS V14.01,2013-03-12 15:35:00,
2013-03-12 08:40:00,57.6,35.5,30.17,NNE,20,5.4,6.3,44,0.00,,---,0.00,VWS V14.01,2013-03-12 15:40:00,
2013-03-12 08:45:00,58.5,34.6,30.17,NNE,25,6.3,6.3,40,0.00,,---,0.00,VWS V14.01,2013-03-12 15:45:00,
2013-03-12 08:51:00,61.0,34.9,30.17,ENE,65,13.2,13.2,38,0.00,,---,0.00,VWS V14.01,2013-03-12 15:51:00,
2013-03-12 08:56:00,62.1,34.8,30.17,NE,53,10.5,10.5,36,0.00,,---,0.00,VWS V14.01,2013-03-12 15:56:00,
2013-03-12 09:01:00,63.5,35.0,30.17,East,83,10.1,13.2,34,0.00,,---,0.00,VWS V14.01,2013-03-12 16:01:00,
2013-03-12 09:07:00,64.6,32.5,30.17,East,91,10.5,12.8,30,0.00,,---,0.00,VWS V14.01,2013-03-12 16:07:00,
2013-03-12 09:12:00,65.5,30.6,30.17,East,99,15.0,15.0,27,0.00,,---,0.00,VWS V14.01,2013-03-12 16:12:00,
2013-03-12 09:17:00,66.0,31.1,30.17,ESE,102,10.1,10.1,27,0.00,,---,0.00,VWS V14.01,2013-03-12 16:17:00,
2013-03-12 09:23:00,66.7,30.3,30.17,ESE,102,17.0,17.0,26,0.00,,---,0.00,VWS V14.01,2013-03-12 16:23:00,
2013-03-12 09:29:00,67.3,27.7,30.17,ENE,78,15.4,15.4,22,0.00,,---,0.00,VWS V14.01,2013-03-12 16:29:00,
2013-03-12 09:35:00,67.8,28.2,30.17,East,100,15.4,15.4,22,0.00,,---,0.00,VWS V14.01,2013-03-12 16:35:00,
2013-03-12 09:40:00,68.2,28.5,30.17,ENE,74,15.9,16.8,22,0.00,,---,0.00,VWS V14.01,2013-03-12 16:40:00,
2013-03-12 09:46:00,68.5,28.8,30.17,East,92,10.5,18.3,22,0.00,,---,0.00,VWS V14.01,2013-03-12 16:46:00,
2013-03-12 09:51:00,68.9,29.1,30.17,ENE,74,15.4,19.7,22,0.00,,---,0.00,VWS V14.01,2013-03-12 16:51:00,
2013-03-12 09:57:00,69.3,29.4,30.17,NE,50,12.3,13.2,22,0.00,,---,0.00,VWS V14.01,2013-03-12 16:57:00,
2013-03-12 10:03:00,69.8,28.1,30.17,ENE,75,10.1,14.5,21,0.00,,---,0.00,VWS V14.01,2013-03-12 17:03:00,
2013-03-12 10:08:00,70.2,28.4,30.17,ESE,115,13.2,14.5,21,0.00,,---,0.00,VWS V14.01,2013-03-12 17:08:00,
2013-03-12 10:15:00,70.3,28.6,30.17,East,99,8.1,20.1,21,0.00,,---,0.00,VWS V14.01,2013-03-12 17:15:00,
2013-03-12 10:21:00,70.5,28.7,30.17,East,80,21.0,21.0,21,0.00,,---,0.00,VWS V14.01,2013-03-12 17:21:00,
2013-03-12 10:27:00,70.9,29.0,30.17,ENE,72,15.4,24.6,21,0.00,,---,0.00,VWS V14.01,2013-03-12 17:27:00,
2013-03-12 10:33:00,71.1,29.2,30.17,ENE,74,10.1,15.4,21,0.00,,---,0.00,VWS V14.01,2013-03-12 17:33:00,
2013-03-12 10:39:00,71.6,29.6,30.17,ENE,63,12.8,15.4,21,0.00,,---,0.00,VWS V14.01,2013-03-12 17:39:00,
2013-03-12 10:45:00,71.6,29.6,30.17,ENE,69,16.3,16.3,21,0.00,,---,0.00,VWS V14.01,2013-03-12 17:45:00,
2013-03-12 10:50:00,71.6,29.6,30.17,ESE,107,15.4,19.7,21,0.00,,---,0.00,VWS V14.01,2013-03-12 17:50:00,
2013-03-12 10:56:00,71.8,29.8,30.17,NE,39,17.0,17.0,21,0.00,,---,0.00,VWS V14.01,2013-03-12 17:56:00,
2013-03-12 11:02:00,72.1,30.1,30.17,ESE,102,13.2,13.2,21,0.00,,---,0.00,VWS V14.01,2013-03-12 18:02:00,
2013-03-12 11:07:00,72.1,30.1,30.17,ENE,57,15.9,15.9,21,0.00,,---,0.00,VWS V14.01,2013-03-12 18:07:00,
2013-03-12 11:12:00,72.3,30.2,30.17,ENE,73,15.4,21.9,21,0.00,,---,0.00,VWS V14.01,2013-03-12 18:12:00,
2013-03-12 11:17:00,72.3,30.2,30.17,ENE,72,16.8,17.4,21,0.00,,---,0.00,VWS V14.01,2013-03-12 18:17:00,
2013-03-12 11:24:00,72.9,30.7,30.17,East,98,12.8,14.1,21,0.00,,---,0.00,VWS V14.01,2013-03-12 18:24:00,
2013-03-12 11:29:00,72.9,30.7,30.17,NE,54,15.4,17.4,21,0.00,,---,0.00,VWS V14.01,2013-03-12 18:29:00,
2013-03-12 11:35:00,73.0,30.8,30.17,ENE,60,20.1,20.1,21,0.00,,---,0.00,VWS V14.01,2013-03-12 18:35:00,
2013-03-12 11:40:00,73.0,30.8,30.17,ESE,114,13.2,15.0,21,0.00,,---,0.00,VWS V14.01,2013-03-12 18:40:00,
2013-03-12 11:46:00,73.4,29.3,30.17,ENE,69,21.5,21.5,20,0.00,,---,0.00,VWS V14.01,2013-03-12 18:46:00,
2013-03-12 11:52:00,73.2,31.0,30.17,ENE,73,11.9,15.0,21,0.00,,---,0.00,VWS V14.01,2013-03-12 18:52:00,
2013-03-12 11:57:00,73.6,29.5,30.17,NE,54,15.4,17.9,20,0.00,,---,0.00,VWS V14.01,2013-03-12 18:57:00,
2013-03-12 12:02:00,73.2,31.0,30.17,ENE,74,18.3,24.2,21,0.00,,---,0.00,VWS V14.01,2013-03-12 19:02:00,
2013-03-12 12:08:00,73.6,29.5,30.17,East,84,11.9,14.5,20,0.00,,---,0.00,VWS V14.01,2013-03-12 19:08:00,
2013-03-12 12:14:00,73.9,29.8,30.17,ENE,74,10.5,13.2,20,0.00,,---,0.00,VWS V14.01,2013-03-12 19:14:00,
2013-03-12 12:19:00,73.8,29.6,30.17,ENE,60,17.4,20.6,20,0.00,,---,0.00,VWS V14.01,2013-03-12 19:19:00,
2013-03-12 12:25:00,73.8,29.6,30.17,East,87,11.0,12.8,20,0.00,,---,0.00,VWS V14.01,2013-03-12 19:25:00,
2013-03-12 12:31:00,74.3,30.0,30.17,ESE,109,8.7,12.8,20,0.00,,---,0.00,VWS V14.01,2013-03-12 19:31:00,
2013-03-12 12:37:00,74.1,29.9,30.17,ENE,65,11.0,17.4,20,0.00,,---,0.00,VWS V14.01,2013-03-12 19:37:00,
2013-03-12 12:42:00,73.9,29.8,30.17,East,82,17.4,17.4,20,0.00,,---,0.00,VWS V14.01,2013-03-12 19:42:00,
2013-03-12 12:47:00,74.7,30.3,30.17,ENE,62,12.8,12.8,20,0.00,,---,0.00,VWS V14.01,2013-03-12 19:47:00,
2013-03-12 12:53:00,75.0,30.6,30.17,ESE,112,5.8,13.2,20,0.00,,---,0.00,VWS V14.01,2013-03-12 19:53:00,
2013-03-12 12:58:00,75.0,30.6,30.17,East,88,11.0,12.8,20,0.00,,---,0.00,VWS V14.01,2013-03-12 19:58:00,
2013-03-12 13:04:00,75.2,30.8,30.17,ENE,70,13.2,15.9,20,0.00,,---,0.00,VWS V14.01,2013-03-12 20:04:00,
2013-03-12 13:10:00,75.4,30.9,30.17,East,93,13.2,13.2,20,0.00,,---,0.00,VWS V14.01,2013-03-12 20:10:00,
2013-03-12 13:16:00,75.4,30.9,30.17,East,80,11.9,13.2,20,0.00,,---,0.00,VWS V14.01,2013-03-12 20:16:00,
2013-03-12 13:22:00,75.2,30.8,30.17,ENE,67,12.8,12.8,20,0.00,,---,0.00,VWS V14.01,2013-03-12 20:22:00,
2013-03-12 13:28:00,75.6,31.1,30.17,SE,130,11.0,17.4,20,0.00,,---,0.00,VWS V14.01,2013-03-12 20:28:00,
2013-03-12 13:34:00,75.9,31.4,30.17,ENE,74,15.0,17.0,20,0.00,,---,0.00,VWS V14.01,2013-03-12 20:34:00,
2013-03-12 13:39:00,75.7,31.2,30.17,ESE,110,13.2,13.2,20,0.00,,---,0.00,VWS V14.01,2013-03-12 20:39:00,
2013-03-12 13:45:00,75.2,30.8,30.14,East,87,9.2,10.5,20,0.00,,---,0.00,VWS V14.01,2013-03-12 20:45:00,
2013-03-12 13:50:00,75.6,31.1,30.14,ENE,74,16.8,21.9,20,0.00,,---,0.00,VWS V14.01,2013-03-12 20:50:00,
2013-03-12 13:56:00,75.9,31.4,30.14,East,80,10.5,10.5,20,0.00,,---,0.00,VWS V14.01,2013-03-12 20:56:00,
2013-03-12 14:02:00,76.1,31.5,30.14,East,90,9.6,15.4,20,0.00,,---,0.00,VWS V14.01,2013-03-12 21:02:00,
2013-03-12 14:08:00,75.9,31.4,30.14,East,85,8.1,12.8,20,0.00,,---,0.00,VWS V14.01,2013-03-12 21:08:00,
2013-03-12 14:14:00,75.7,31.2,30.14,NE,52,12.8,15.0,20,0.00,,---,0.00,VWS V14.01,2013-03-12 21:14:00,
2013-03-12 14:19:00,75.9,31.4,30.14,ENE,74,15.0,15.0,20,0.00,,---,0.00,VWS V14.01,2013-03-12 21:19:00,
2013-03-12 14:25:00,75.9,31.4,30.14,East,88,10.5,13.2,20,0.00,,---,0.00,VWS V14.01,2013-03-12 21:25:00,
2013-03-12 14:30:00,75.7,31.2,30.14,ENE,71,7.2,11.4,20,0.00,,---,0.00,VWS V14.01,2013-03-12 21:30:00,
2013-03-12 14:36:00,76.3,31.7,30.14,East,86,8.1,11.0,20,0.00,,---,0.00,VWS V14.01,2013-03-12 21:36:00,
2013-03-12 14:41:00,76.3,31.7,30.14,East,90,10.1,12.8,20,0.00,,---,0.00,VWS V14.01,2013-03-12 21:41:00,
2013-03-12 14:47:00,76.3,31.7,30.14,ENE,68,8.1,12.8,20,0.00,,---,0.00,VWS V14.01,2013-03-12 21:47:00,
2013-03-12 14:52:00,76.5,31.8,30.14,East,101,8.7,11.0,20,0.00,,---,0.00,VWS V14.01,2013-03-12 21:52:00,
2013-03-12 14:58:00,76.3,31.7,30.14,ENE,61,5.8,12.3,20,0.00,,---,0.00,VWS V14.01,2013-03-12 21:58:00,
2013-03-12 15:03:00,76.5,31.8,30.14,East,94,8.3,11.0,20,0.00,,---,0.00,VWS V14.01,2013-03-12 22:03:00,
2013-03-12 15:08:00,76.6,32.0,30.14,East,101,8.1,8.1,20,0.00,,---,0.00,VWS V14.01,2013-03-12 22:08:00,
2013-03-12 15:13:00,76.1,31.5,30.14,ESE,108,8.1,13.2,20,0.00,,---,0.00,VWS V14.01,2013-03-12 22:13:00,
2013-03-12 15:18:00,75.9,31.4,30.14,East,97,5.4,8.3,20,0.00,,---,0.00,VWS V14.01,2013-03-12 22:18:00,
2013-03-12 15:24:00,76.5,31.8,30.14,ENE,63,12.3,13.2,20,0.00,,---,0.00,VWS V14.01,2013-03-12 22:24:00,
2013-03-12 15:29:00,76.6,32.0,30.14,ENE,68,12.8,12.8,20,0.00,,---,0.00,VWS V14.01,2013-03-12 22:29:00,
2013-03-12 15:34:00,76.3,31.7,30.14,ENE,71,8.7,8.7,20,0.00,,---,0.00,VWS V14.01,2013-03-12 22:34:00,
2013-03-12 15:40:00,75.9,31.4,30.14,ESE,103,8.1,13.6,20,0.00,,---,0.00,VWS V14.01,2013-03-12 22:40:00,
2013-03-12 15:45:00,76.3,31.7,30.14,ESE,122,12.8,13.2,20,0.00,,---,0.00,VWS V14.01,2013-03-12 22:45:00,
2013-03-12 15:51:00,76.5,31.8,30.14,ESE,109,7.6,8.3,20,0.00,,---,0.00,VWS V14.01,2013-03-12 22:51:00,
2013-03-12 15:56:00,76.6,32.0,30.14,SE,141,12.8,12.8,20,0.00,,---,0.00,VWS V14.01,2013-03-12 22:56:00,
2013-03-12 16:02:00,76.6,32.0,30.14,East,82,10.1,14.5,20,0.00,,---,0.00,VWS V14.01,2013-03-12 23:02:00,
2013-03-12 16:08:00,76.6,32.0,30.14,ESE,112,8.1,8.1,20,0.00,,---,0.00,VWS V14.01,2013-03-12 23:08:00,
2013-03-12 16:14:00,76.5,31.8,30.14,SE,132,8.7,10.1,20,0.00,,---,0.00,VWS V14.01,2013-03-12 23:14:00,
2013-03-12 16:19:00,76.1,31.5,30.14,SE,139,6.3,10.1,20,0.00,,---,0.00,VWS V14.01,2013-03-12 23:19:00,
2013-03-12 16:25:00,76.3,31.7,30.14,SE,134,10.5,11.0,20,0.00,,---,0.00,VWS V14.01,2013-03-12 23:25:00,
2013-03-12 16:30:00,76.3,31.7,30.14,SE,137,6.3,8.7,20,0.00,,---,0.00,VWS V14.01,2013-03-12 23:30:00,
2013-03-12 16:36:00,76.3,31.7,30.14,NE,54,2.2,4.0,20,0.00,,---,0.00,VWS V14.01,2013-03-12 23:36:00,
2013-03-12 16:42:00,76.5,31.8,30.14,ESE,102,10.1,10.1,20,0.00,,---,0.00,VWS V14.01,2013-03-12 23:42:00,
2013-03-12 16:47:00,76.1,31.5,30.14,ESE,114,6.3,6.3,20,0.00,,---,0.00,VWS V14.01,2013-03-12 23:47:00,
2013-03-12 16:52:00,75.7,31.2,30.14,SE,135,5.8,5.8,20,0.00,,---,0.00,VWS V14.01,2013-03-12 23:52:00,
2013-03-12 16:57:00,75.7,31.2,30.14,South,172,0.0,5.8,20,0.00,,---,0.00,VWS V14.01,2013-03-12 23:57:00,
2013-03-12 17:02:00,75.6,31.1,30.14,East,91,3.1,10.5,20,0.00,,---,0.00,VWS V14.01,2013-03-13 00:02:00,
2013-03-12 17:08:00,75.4,30.9,30.14,SW,224,8.1,8.7,20,0.00,,---,0.00,VWS V14.01,2013-03-13 00:08:00,
2013-03-12 17:13:00,74.7,30.3,30.14,West,265,7.2,7.6,20,0.00,,---,0.00,VWS V14.01,2013-03-13 00:13:00,
2013-03-12 17:19:00,73.6,29.5,30.14,NW,317,8.1,8.1,20,0.00,,---,0.00,VWS V14.01,2013-03-13 00:19:00,
2013-03-12 17:24:00,72.9,30.7,30.14,NNW,328,3.6,3.6,21,0.00,,---,0.00,VWS V14.01,2013-03-13 00:24:00,
2013-03-12 17:30:00,72.7,30.5,30.14,West,274,5.8,5.8,21,0.00,,---,0.00,VWS V14.01,2013-03-13 00:30:00,
2013-03-12 17:35:00,72.1,30.1,30.14,NW,304,5.4,5.4,21,0.00,,---,0.00,VWS V14.01,2013-03-13 00:35:00,
2013-03-12 17:41:00,71.8,29.8,30.14,WSW,240,5.8,8.3,21,0.00,,---,0.00,VWS V14.01,2013-03-13 00:41:00,
2013-03-12 17:46:00,72.0,29.9,30.14,West,265,4.5,4.9,21,0.00,,---,0.00,VWS V14.01,2013-03-13 00:46:00,
2013-03-12 17:52:00,71.4,29.5,30.14,NW,305,8.3,10.1,21,0.00,,---,0.00,VWS V14.01,2013-03-13 00:52:00,
2013-03-12 17:57:00,70.9,29.0,30.14,West,275,7.6,8.3,21,0.00,,---,0.00,VWS V14.01,2013-03-13 00:57:00,
2013-03-12 18:02:00,70.7,28.9,30.14,WSW,257,8.7,8.7,21,0.00,,---,0.00,VWS V14.01,2013-03-13 01:02:00,
2013-03-12 18:08:00,70.7,28.9,30.14,West,263,5.8,6.7,21,0.00,,---,0.00,VWS V14.01,2013-03-13 01:08:00,
2013-03-12 18:13:00,70.3,28.6,30.14,WSW,251,7.2,7.6,21,0.00,,---,0.00,VWS V14.01,2013-03-13 01:13:00,
2013-03-12 18:19:00,69.8,28.1,30.14,West,260,5.4,6.3,21,0.00,,---,0.00,VWS V14.01,2013-03-13 01:19:00,
2013-03-12 18:25:00,69.1,29.2,30.14,West,275,3.6,4.9,22,0.00,,---,0.00,VWS V14.01,2013-03-13 01:25:00,
2013-03-12 18:30:00,68.9,29.1,30.14,WSW,254,3.1,3.6,22,0.00,,---,0.00,VWS V14.01,2013-03-13 01:30:00,
2013-03-12 18:36:00,68.4,28.6,30.14,WSW,242,2.2,3.6,22,0.00,,---,0.00,VWS V14.01,2013-03-13 01:36:00,
2013-03-12 18:41:00,68.0,28.3,30.14,West,265,0.0,0.0,22,0.00,,---,0.00,VWS V14.01,2013-03-13 01:41:00,
2013-03-12 18:47:00,66.9,27.4,30.14,NNE,18,3.1,3.1,22,0.00,,---,0.00,VWS V14.01,2013-03-13 01:47:00,
2013-03-12 18:52:00,66.6,27.1,30.14,North,4,0.0,0.0,22,0.00,,---,0.00,VWS V14.01,2013-03-13 01:52:00,
2013-03-12 18:57:00,66.0,26.6,30.14,East,80,5.8,5.8,22,0.00,,---,0.00,VWS V14.01,2013-03-13 01:57:00,
2013-03-12 19:03:00,65.1,25.9,30.14,NE,46,0.0,0.0,22,0.00,,---,0.00,VWS V14.01,2013-03-13 02:03:00,
2013-03-12 19:08:00,64.4,25.3,30.14,NE,41,3.1,5.4,22,0.00,,---,0.00,VWS V14.01,2013-03-13 02:08:00,
2013-03-12 19:13:00,63.7,26.2,30.17,NNE,12,0.0,0.0,24,0.00,,---,0.00,VWS V14.01,2013-03-13 02:13:00,
2013-03-12 19:19:00,62.6,25.3,30.17,North,11,0.0,0.0,24,0.00,,---,0.00,VWS V14.01,2013-03-13 02:19:00,
2013-03-12 19:25:00,61.9,24.7,30.17,ESE,116,3.6,3.6,24,0.00,,---,0.00,VWS V14.01,2013-03-13 02:25:00,
2013-03-12 19:30:00,60.8,23.8,30.17,NE,56,4.0,5.8,24,0.00,,---,0.00,VWS V14.01,2013-03-13 02:30:00,
2013-03-12 19:36:00,59.7,24.3,30.17,ENE,66,3.1,3.1,26,0.00,,---,0.00,VWS V14.01,2013-03-13 02:36:00,
2013-03-12 19:41:00,59.0,23.7,30.17,South,172,3.1,3.1,26,0.00,,---,0.00,VWS V14.01,2013-03-13 02:41:00,
2013-03-12 19:46:00,58.3,23.1,30.17,ESE,119,5.8,5.8,26,0.00,,---,0.00,VWS V14.01,2013-03-13 02:46:00,
2013-03-12 19:52:00,57.6,22.5,30.17,ESE,109,6.3,6.3,26,0.00,,---,0.00,VWS V14.01,2013-03-13 02:52:00,
2013-03-12 19:58:00,57.2,22.2,30.17,ESE,105,3.6,4.0,26,0.00,,---,0.00,VWS V14.01,2013-03-13 02:58:00,
2013-03-12 20:04:00,56.8,21.9,30.17,East,93,5.4,5.4,26,0.00,,---,0.00,VWS V14.01,2013-03-13 03:04:00,
2013-03-12 20:09:00,56.3,21.4,30.17,ESE,111,5.8,5.8,26,0.00,,---,0.00,VWS V14.01,2013-03-13 03:09:00,
2013-03-12 20:14:00,55.4,20.6,30.17,East,92,6.3,6.3,26,0.00,,---,0.00,VWS V14.01,2013-03-13 03:14:00,
2013-03-12 20:19:00,54.5,21.2,30.17,East,91,6.3,6.7,27,0.00,,---,0.00,VWS V14.01,2013-03-13 03:19:00,
2013-03-12 20:24:00,54.0,20.8,30.17,East,91,5.8,6.3,27,0.00,,---,0.00,VWS V14.01,2013-03-13 03:24:00,
2013-03-12 20:30:00,53.4,20.3,30.20,ESE,113,5.4,5.4,27,0.00,,---,0.00,VWS V14.01,2013-03-13 03:30:00,
2013-03-12 20:36:00,53.1,20.0,30.20,ENE,75,0.0,3.6,27,0.00,,---,0.00,VWS V14.01,2013-03-13 03:36:00,
2013-03-12 20:41:00,52.7,19.7,30.20,ESE,102,2.7,2.7,27,0.00,,---,0.00,VWS V14.01,2013-03-13 03:41:00,
2013-03-12 20:47:00,52.2,19.2,30.20,East,93,4.0,4.9,27,0.00,,---,0.00,VWS V14.01,2013-03-13 03:47:00,
2013-03-12 20:52:00,52.0,19.1,30.20,ENE,73,0.0,2.2,27,0.00,,---,0.00,VWS V14.01,2013-03-13 03:52:00,
2013-03-12 20:58:00,50.2,18.8,30.20,NNW,334,3.1,3.1,28,0.00,,---,0.00,VWS V14.01,2013-03-13 03:58:00,
2013-03-12 21:00:00,49.6,18.3,30.20,NNW,334,0.0,0.0,28,0.00,,---,0.00,VWS V14.01,2013-03-13 04:00:00,
2013-03-12 21:01:00,49.5,18.1,30.20,NE,41,2.7,2.7,28,0.00,,---,0.00,VWS V14.01,2013-03-13 04:01:00,
2013-03-12 21:03:00,49.3,18.0,30.20,NNE,23,0.0,3.6,28,0.00,,---,0.00,VWS V14.01,2013-03-13 04:03:00,
2013-03-12 21:04:00,49.3,18.0,30.20,NNE,27,2.7,3.1,28,0.00,,---,0.00,VWS V14.01,2013-03-13 04:04:00,
2013-03-12 21:09:00,48.6,19.7,30.20,NNW,342,2.7,2.7,32,0.00,,---,0.00,VWS V14.01,2013-03-13 04:09:00,
2013-03-12 21:14:00,48.4,19.5,30.20,NNW,342,0.0,0.0,32,0.00,,---,0.00,VWS V14.01,2013-03-13 04:14:00,
2013-03-12 21:20:00,48.6,19.7,30.20,NNW,343,0.0,0.0,32,0.00,,---,0.00,VWS V14.01,2013-03-13 04:20:00,
2013-03-12 21:26:00,48.6,19.7,30.20,ENE,65,0.0,0.0,32,0.00,,---,0.00,VWS V14.01,2013-03-13 04:26:00,
2013-03-12 21:31:00,48.4,19.5,30.20,ESE,111,0.0,0.0,32,0.00,,---,0.00,VWS V14.01,2013-03-13 04:31:00,
2013-03-12 21:38:00,48.2,19.4,30.20,East,101,0.0,0.0,32,0.00,,---,0.00,VWS V14.01,2013-03-13 04:38:00,
2013-03-12 21:43:00,47.5,19.8,30.20,ENE,62,0.0,0.0,33,0.00,,---,0.00,VWS V14.01,2013-03-13 04:43:00,
2013-03-12 21:49:00,46.4,20.9,30.20,ENE,62,0.0,0.0,36,0.00,,---,0.00,VWS V14.01,2013-03-13 04:49:00,
2013-03-12 21:54:00,46.2,21.7,30.23,SSW,199,0.0,0.0,38,0.00,,---,0.00,VWS V14.01,2013-03-13 04:54:00,
2013-03-12 21:59:00,46.4,20.9,30.23,South,191,0.0,0.0,36,0.00,,---,0.00,VWS V14.01,2013-03-13 04:59:00,
2013-03-12 22:05:00,46.2,21.7,30.23,South,191,0.0,0.0,38,0.00,,---,0.00,VWS V14.01,2013-03-13 05:05:00,
2013-03-12 22:11:00,46.2,23.5,30.23,SSE,156,0.0,0.0,40,0.00,,---,0.00,VWS V14.01,2013-03-13 05:11:00,
2013-03-12 22:17:00,46.4,23.7,30.23,ENE,61,0.0,0.0,40,0.00,,---,0.00,VWS V14.01,2013-03-13 05:17:00,
2013-03-12 22:23:00,46.2,23.5,30.23,SE,143,0.0,0.0,40,0.00,,---,0.00,VWS V14.01,2013-03-13 05:23:00,
2013-03-12 22:29:00,45.9,23.2,30.23,East,90,2.7,4.0,40,0.00,,---,0.00,VWS V14.01,2013-03-13 05:29:00,
2013-03-12 22:34:00,45.9,23.2,30.23,SE,124,3.6,3.6,40,0.00,,---,0.00,VWS V14.01,2013-03-13 05:34:00,
2013-03-12 22:40:00,45.7,23.9,30.23,East,90,4.0,5.4,42,0.00,,---,0.00,VWS V14.01,2013-03-13 05:40:00,
2013-03-12 22:45:00,45.5,23.8,30.23,ESE,106,2.7,4.0,42,0.00,,---,0.00,VWS V14.01,2013-03-13 05:45:00,
2013-03-12 22:51:00,45.3,23.6,30.23,SE,135,2.7,4.0,42,0.00,,---,0.00,VWS V14.01,2013-03-13 05:51:00,
2013-03-12 22:57:00,45.1,23.4,30.23,SE,132,0.0,0.0,42,0.00,,---,0.00,VWS V14.01,2013-03-13 05:57:00,
2013-03-12 23:03:00,45.0,23.3,30.23,SSE,149,3.1,3.1,42,0.00,,---,0.00,VWS V14.01,2013-03-13 06:03:00,
2013-03-12 23:09:00,44.6,22.9,30.23,ENE,61,4.0,4.0,42,0.00,,---,0.00,VWS V14.01,2013-03-13 06:09:00,
2013-03-12 23:15:00,44.4,22.8,30.23,North,357,3.1,5.8,42,0.00,,---,0.00,VWS V14.01,2013-03-13 06:15:00,
2013-03-12 23:21:00,43.5,22.0,30.23,West,260,0.0,0.0,42,0.00,,---,0.00,VWS V14.01,2013-03-13 06:21:00,
2013-03-12 23:27:00,43.7,22.1,30.23,SW,234,0.0,0.0,42,0.00,,---,0.00,VWS V14.01,2013-03-13 06:27:00,
2013-03-12 23:32:00,44.2,23.5,30.23,North,11,0.0,0.0,44,0.00,,---,0.00,VWS V14.01,2013-03-13 06:32:00,
2013-03-12 23:37:00,44.2,23.5,30.23,WSW,239,0.0,0.0,44,0.00,,---,0.00,VWS V14.01,2013-03-13 06:37:00,
2013-03-12 23:43:00,44.2,23.5,30.23,West,277,0.0,0.0,44,0.00,,---,0.00,VWS V14.01,2013-03-13 06:43:00,
2013-03-12 23:48:00,44.1,23.3,30.23,NW,314,0.0,0.0,44,0.00,,---,0.00,VWS V14.01,2013-03-13 06:48:00,
2013-03-12 23:54:00,44.8,23.1,30.23,NNE,25,0.0,0.0,42,0.00,,---,0.00,VWS V14.01,2013-03-13 06:54:00,
2013-03-12 23:59:00,45.3,23.6,30.23,North,3,0.0,0.0,42,0.00,,---,0.00,VWS V14.01,2013-03-13 06:59:00,